Content
SEND FEEDBACK

Daily
Averages
Monthly
Summary
United States of America

ST. LOUIS, MISSOURI


Home > North America > United States > Missouri
Elevation: 535 feet     Latitude: 38 45N     Longitude: 090 22W

WEATHER
 
SELECT A DAY
Number of Records: 196,446;   Date Range: 1/1/95 - 8/12/14
 
SHARE

PRINT THIS DATA

[ ← Previous Day ]
WEATHER ALMANAC - SEPTEMBER 20, 2013
[ Next Day → ]
[ °C ]   °F
Weather ElementAverageHighLow
Temperature69 °F75.2 °F (1:11 am)55.9 °F (11:54 pm)
Dewpoint64.7 °F68 °F (2:19 am)54 °F (11:54 pm)
Humidity86.5 %96 % (5:54 am)68 % (3:54 pm)
Barometer29.90 in29.93 in (2:49 am)29.86 in (4:54 pm)
Wind Speed4.6 mph13.8 mph (2:49 am)
Weather ElementAverage
Visibility8.5 mi
Wind DirectionSSW (193.5 °)

Weather ElementTotal
Precipitation1.22 in
Cooling Degree Days0.5 (Base 65)
Growing Degree Days15.6 (Base 50)
Averaged from 37 records on September 20, 2013
WEATHER CONDITIONS BREAKOUT
WIND DIRECTION BREAKOUT
WEATHER BY HOUR - SEPTEMBER 20, 2013
[ °C ]   °F
Local TimeTemperatureDewpointHumidityBarometerVisibilityWind DirectionWind SpeedGust SpeedPrecipitationEventsConditions
12:54 AM75.0 °F66.9 °F76 %29.89 in10.0 miNNW (330°)9.2 mph0.02 inRain-ThunderstormLight Rain
1:11 AM75.2 °F66.2 °F73 %29.91 in10.0 miCalm0.00 inThunderstormOvercast
1:17 AM75.2 °F66.2 °F73 %29.91 in10.0 miNNE (20°)3.5 mph0.00 inThunderstormOvercast
1:38 AM73.4 °F66.2 °F78 %29.91 in10.0 miNE (40°)4.6 mph0.00 inOvercast
1:54 AM73.0 °F66.9 °F81 %29.88 in10.0 miENE (60°)3.5 mph0.00 inOvercast
2:19 AM71.6 °F68.0 °F88 %29.89 in6.0 miEast (90°)4.6 mph0.05 inRain-ThunderstormLight Rain
2:49 AM69.8 °F66.2 °F88 %29.93 in2.5 miWest (260°)13.8 mph0.13 inRain-ThunderstormHeavy Thunderstorms and Rain
2:52 AM69.8 °F66.2 °F88 %29.93 in3.0 miWest (260°)10.4 mph0.14 inRain-ThunderstormHeavy Thunderstorms and Rain
2:54 AM70.0 °F66.9 °F90 %29.91 in3.0 miWest (260°)9.2 mph0.16 inRain-ThunderstormThunderstorms and Rain
3:00 AM69.8 °F66.2 °F88 %29.92 in1.8 miWNW (300°)4.6 mph0.10 inRain-ThunderstormHeavy Thunderstorms and Rain
3:11 AM69.8 °F66.2 °F88 %29.91 in3.0 miCalm0.15 inRain-ThunderstormThunderstorms and Rain
3:18 AM69.8 °F66.2 °F88 %29.92 in4.0 miSSW (210°)3.5 mph0.17 inRainRain
3:54 AM69.1 °F66.9 °F93 %29.87 in10.0 miCalm0.20 inRainLight Rain
4:54 AM69.1 °F66.9 °F93 %29.88 in10.0 miWest (270°)3.5 mph0.03 inRainLight Rain
5:54 AM68.0 °F66.9 °F96 %29.88 in10.0 miCalm0.01 inRainLight Rain
6:31 AM68.0 °F66.2 °F94 %29.90 in10.0 miCalm0.01 inRainLight Rain
6:54 AM68.0 °F66.9 °F96 %29.88 in10.0 miCalm0.01 inRainLight Rain
7:54 AM68.0 °F66.9 °F96 %29.91 in10.0 miSW (220°)3.5 mph0.00 inOvercast
8:54 AM69.1 °F66.9 °F93 %29.90 in10.0 miCalm0.00 inRainLight Rain
9:54 AM70.0 °F68.0 °F93 %29.91 in10.0 miWSW (240°)3.5 mph0.00 inOvercast
10:54 AM71.1 °F66.9 °F87 %29.91 in10.0 miWSW (250°)5.8 mphOvercast
11:01 AM71.6 °F68.0 °F88 %29.93 in10.0 miWest (260°)4.6 mphOvercast
11:31 AM69.8 °F68.0 °F94 %29.93 in4.0 miWSW (250°)5.8 mph0.01 inRainLight Rain
11:54 AM70.0 °F68.0 °F93 %29.91 in6.0 miWSW (250°)6.9 mph0.01 inOvercast
12:54 PM71.1 °F68.0 °F90 %29.90 in10.0 miWest (260°)4.6 mph0.01 inOvercast
1:54 PM70.0 °F66.0 °F87 %29.89 in10.0 miNW (310°)8.1 mph0.00 inOvercast
2:54 PM69.1 °F64.9 °F87 %29.88 in10.0 miWNW (290°)6.9 mph0.01 inOvercast
3:21 PM71.6 °F64.4 °F78 %29.89 in10.0 miWNW (290°)4.6 mphScattered Clouds
3:54 PM71.1 °F60.1 °F68 %29.88 in10.0 miNW (320°)10.4 mphOvercast
4:54 PM71.1 °F61.0 °F70 %29.86 in10.0 miWNW (290°)5.8 mphOvercast
5:54 PM69.1 °F59.0 °F70 %29.88 in10.0 miNW (310°)4.6 mphOvercast
6:54 PM66.9 °F59.0 °F76 %29.87 in10.0 miWest (270°)3.5 mphMostly Cloudy
7:54 PM62.1 °F59.0 °F90 %29.88 in10.0 miWSW (240°)3.5 mphClear
8:54 PM60.1 °F59.0 °F96 %29.90 in10.0 miWSW (240°)3.5 mphClear
9:54 PM61.0 °F57.0 °F87 %29.91 in10.0 miWNW (300°)4.6 mphClear
10:54 PM57.9 °F55.9 °F93 %29.92 in10.0 miWSW (240°)4.6 mphClear
11:54 PM55.9 °F54.0 °F93 %29.92 in10.0 miSW (230°)3.5 mphClear
Hourly data recorded from KSUS, located miles away from St. Louis, Missouri







STORIES FROM OUR PARTNERS